[[{"header":{"parameterUnit":"m.s-1","parameterCategory":1,"la1":30.2991,"la2":30.254,"lo1":-89.0895,"lo2":-89.0444,"dy":0.0017,"dx":0.0017,"nx":28,"ny":28,"refTime":"2025-05-31T09:00:00:Z","depth":0,"parameterNumber":2,"parameterNumberName":"U-component_of_WINDS"},"data":[0,0,0,0,0,0,0,0,0,0,0,0,0,0,0,0,0,0,0,0,0,0,0,0,0,0,0,0,0,0,0,0,0,0,0,0,0,0,0,0,0,0,0,0,0,0,0,0,0,0,0,0,0,0,0,0,0,0,-1.263,-1.2631,0,-1.269,-1.2691,-1.2692,-1.2619,-1.2616,-1.2613,-1.2611,-1.2676,-1.268,-1.2684,0,0,0,0,0,0,0,0,0,0,0,0,0,-1.2455,-1.2459,-1.263,-1.2631,-1.2632,-1.269,-1.2691,-1.2692,-1.2619,-1.2616,-1.2612,-1.2609,-1.2675,-1.268,-1.2685,0,0,0,0,0,0,0,0,0,0,0,0,0,-1.2525,-1.246,-1.263,-1.2602,-1.26,-1.269,-1.2691,-1.2692,-1.262,-1.2616,-1.2612,-1.2608,-1.2673,-1.2679,-1.2685,-1.2806,0,0,-1.2705,-1.2708,0,0,0,0,0,0,0,0,-1.2521,-1.2532,-1.2606,-1.2604,-1.2602,-1.2643,-1.2653,-1.273,-1.2621,-1.2613,-1.2611,-1.2606,-1.2668,-1.2675,-1.2695,-1.2809,-1.2812,-1.2706,-1.2709,-1.2712,-1.2714,0,0,0,0,0,0,0,-1.2516,-1.2529,-1.2654,-1.2607,-1.2605,-1.2588,-1.2593,-1.2667,-1.2663,-1.2613,-1.2608,-1.2616,-1.2667,-1.2689,-1.2696,-1.2813,-1.2705,-1.2711,-1.2715,-1.2717,-1.303,-1.3034,0,0,0,0,0,0,-1.2514,-1.2525,-1.2652,-1.2656,-1.2551,-1.2594,-1.26,-1.2634,-1.2662,-1.2662,-1.2619,-1.2612,-1.268,-1.2689,-1.2698,-1.2843,-1.2712,-1.2718,-1.2722,-1.3025,-1.3031,-1.3035,0,0,0,0,0,0,-1.2511,-1.2526,-1.265,-1.2589,-1.2603,-1.2602,-1.264,-1.2637,-1.266,-1.2666,-1.2665,-1.2643,-1.2677,-1.2689,-1.278,-1.2844,-1.2721,-1.2727,-1.302,-1.3027,-1.3033,-1.3132,0,0,0,0,0,0,-1.2506,-1.2526,-1.2571,-1.2591,-1.2607,-1.273,-1.2644,-1.2641,-1.267,-1.2662,-1.2688,-1.2689,-1.2675,-1.2771,-1.2786,-1.285,-1.2732,-1.3014,-1.3023,-1.3031,-1.3123,-1.3141,-1.3157,0,0,0,0,0,-1.25,-1.2597,-1.2574,-1.259,-1.2664,-1.2734,-1.2743,-1.2725,-1.2676,-1.2722,-1.2726,-1.2688,-1.2833,-1.278,-1.2797,-1.2865,-1.301,-1.302,-1.303,-1.3115,-1.3138,-1.3156,0,0,0,0,0,0,-1.2587,-1.26,-1.2574,-1.268,-1.2706,-1.2721,-1.2779,-1.2748,-1.279,-1.2781,-1.2756,-1.2763,-1.286,-1.287,-1.2811,-1.2983,-1.2914,-1.2928,-1.2973,-1.2994,-1.3011,-1.3008,-1.2737,0,0,0,0,0,-1.2618,-1.2673,-1.2681,-1.2774,-1.2788,-1.2782,-1.2811,-1.2794,-1.2821,-1.2833,-1.2843,-1.2872,-1.2924,-1.2959,-1.3007,-1.3123,-1.3128,-1.3177,-1.3194,-1.3208,-1.3221,-1.3284,-1.3306,-1.3068,-1.3068,-1.3068,0,0,-1.2685,-1.2698,-1.2734,-1.2792,-1.281,-1.2869,-1.2792,-1.2857,-1.2901,-1.2843,-1.2929,-1.2938,-1.2968,-1.3072,-1.3118,-1.3084,-1.3288,-1.3221,-1.3232,-1.3238,-1.3297,-1.3319,-1.3339,-1.3075,-1.3074,-1.3073,0,0,-1.2835,-1.285,-1.2929,-1.2949,-1.2977,-1.2971,-1.299,-1.301,-1.3013,-1.3098,-1.3057,-1.3108,-1.3198,-1.3221,-1.3245,-1.3402,-1.337,-1.3418,-1.3508,-1.357,-1.3588,-1.3605,-1.3663,-1.3684,-1.3431,-1.3431,-1.3431,0,-1.2914,-1.3,-1.2974,-1.3043,-1.307,-1.3017,-1.3099,-1.3119,-1.3162,-1.3183,-1.3143,-1.3254,-1.3271,-1.338,-1.3418,-1.3438,-1.3461,-1.3417,-1.3587,-1.3604,-1.3619,-1.3674,-1.3696,-1.3437,-1.3436,-1.3436,-1.3435,0,-1.3096,-1.3156,-1.3217,-1.3259,-1.3292,-1.3367,-1.3353,-1.339,-1.3369,-1.3368,-1.3456,-1.3474,-1.3525,-1.3549,-1.353,-1.3655,-1.3633,-1.3591,-1.3522,-1.3648,-1.37,-1.372,-1.3446,-1.3444,-1.3442,-1.344,0,0,-1.3307,-1.3332,-1.3355,-1.3373,-1.3399,-1.3446,-1.3517,-1.3566,-1.3599,-1.3629,-1.369,-1.3766,-1.3727,-1.3754,-1.3737,-1.379,-1.3916,-1.3741,-1.3741,-1.3775,-1.4057,-1.4091,-1.4116,-1.3892,-1.3896,-1.3899,-1.4055,0,-1.346,-1.3583,-1.3562,-1.3682,-1.3738,-1.3688,-1.375,-1.3774,-1.3774,-1.3822,-1.3822,-1.3877,-1.382,-1.3836,-1.3886,-1.389,-1.3972,-1.3878,-1.3951,-1.3954,-1.3948,-1.4142,-1.4179,-1.4326,-1.4075,-1.4078,-1.4081,0,-1.3655,-1.3692,-1.3818,-1.3835,-1.3857,-1.3914,-1.3956,-1.4002,-1.4027,-1.4023,-1.4053,-1.4025,-1.4097,-1.4024,-1.4124,-1.406,-1.4088,-1.4094,-1.4099,-1.4108,-1.4027,-1.4159,-1.4372,-1.4395,-1.4112,-1.4109,-1.4107,0,-1.3799,-1.388,-1.3966,-1.3982,-1.4004,-1.4045,-1.4056,-1.4077,-1.4107,-1.4144,-1.4164,-1.4209,-1.4235,-1.4271,-1.4256,-1.4204,-1.436,-1.4285,-1.4361,-1.4361,-1.4399,-1.4397,-1.4622,-1.4412,-1.4411,-1.4411,-1.4411,0,-1.3974,-1.4054,-1.4031,-1.4084,-1.4172,-1.4145,-1.4233,-1.4238,-1.4257,-1.4311,-1.4269,-1.4321,-1.4297,-1.4348,-1.4336,-1.4422,-1.4433,-1.4433,-1.443,-1.4439,-1.444,-1.446,-1.445,-1.4417,-1.4416,-1.4414,-1.4413,0,-1.4152,-1.4139,-1.423,-1.4241,-1.4246,-1.4311,-1.4321,-1.4371,-1.4367,-1.4436,-1.445,-1.4444,-1.4501,-1.4489,-1.4551,-1.4544,-1.4652,-1.4634,-1.4644,-1.4641,-1.4718,-1.4712,-1.4966,-1.4999,-1.4765,-1.4767,-1.4769,0,-1.4266,-1.4326,-1.4343,-1.4376,-1.4389,-1.4442,-1.4473,-1.4448,-1.4482,-1.4514,-1.4561,-1.4613,-1.4655,-1.4748,-1.475,-1.4797,-1.4782,-1.4868,-1.479,-1.4797,-1.4787,-1.4785,-1.4791,-1.4885,-1.4888,-1.489,-1.4891,0,-1.447,-1.446,-1.4505,-1.4548,-1.4585,-1.4617,-1.4646,-1.4675,-1.4653,-1.4693,-1.4749,-1.4781,-1.4844,-1.4898,-1.4941,-1.4953,-1.492,-1.4915,-1.4936,-1.4947,-1.4951,-1.4953,-1.4689,-1.4911,-1.4909,-1.4907,-1.4906,-1.4905,-1.4621,-1.4672,-1.4693,-1.4744,-1.4762,-1.479,-1.4837,-1.4838,-1.4885,-1.4934,-1.4916,-1.4981,-1.5004,-1.5059,-1.5076,-1.5127,-1.5095,-1.5125,-1.5133,-1.5141,-1.5152,-1.494,-1.5135,-1.5134,-1.5134,-1.5133,-1.5133,0,-1.4826,-1.4836,-1.4882,-1.4923,-1.4964,-1.4925,-1.4955,-1.4992,-1.5049,-1.5073,-1.5113,-1.5179,-1.523,-1.5235,-1.5283,-1.5323,-1.5309,-1.5337,-1.5336,-1.5339,-1.5176,-1.5155,-1.5348,-1.5348,-1.5348,-1.5348,-1.5347,-1.5347,-1.4937,-1.5022,-1.5015,-1.5108,-1.5117,-1.518,-1.5201,-1.5226,-1.5244,-1.5319,-1.5361,-1.5363,-1.5379,-1.5428,-1.5473,-1.5473,-1.5494,-1.5529,-1.5523,-1.5372,-1.5351,-1.533,-1.531,-1.5533,-1.5533,-1.5682,-1.5684,-1.5685]},{"header":{"parameterUnit":"m.s-1","parameterCategory":1,"la1":30.2991,"la2":30.254,"lo1":-89.0895,"lo2":-89.0444,"dy":0.0017,"dx":0.0017,"nx":28,"ny":28,"refTime":"2025-05-31T09:00:00:Z","depth":0,"parameterNumber":3,"parameterNumberName":"V-component_of_WINDS"},"data":[0,0,0,0,0,0,0,0,0,0,0,0,0,0,0,0,0,0,0,0,0,0,0,0,0,0,0,0,0,0,0,0,0,0,0,0,0,0,0,0,0,0,0,0,0,0,0,0,0,0,0,0,0,0,0,0,0,0,-4.8644,-4.8645,0,-4.8712,-4.8713,-4.8713,-4.8643,-4.864,-4.8638,-4.8635,-4.8701,-4.8705,-4.871,0,0,0,0,0,0,0,0,0,0,0,0,0,-4.8449,-4.8453,-4.8644,-4.8645,-4.8646,-4.8712,-4.8713,-4.8714,-4.8643,-4.864,-4.8637,-4.8634,-4.87,-4.8705,-4.871,0,0,0,0,0,0,0,0,0,0,0,0,0,-4.8527,-4.8454,-4.8644,-4.8619,-4.8617,-4.8712,-4.8713,-4.8714,-4.8644,-4.864,-4.8636,-4.8632,-4.8698,-4.8704,-4.8711,-4.8832,0,0,-4.873,-4.8733,0,0,0,0,0,0,0,0,-4.8523,-4.8534,-4.8622,-4.8621,-4.8619,-4.8665,-4.8668,-4.8754,-4.8645,-4.8634,-4.8635,-4.863,-4.8692,-4.8699,-4.8721,-4.8836,-4.8838,-4.8731,-4.8735,-4.8738,-4.874,0,0,0,0,0,0,0,-4.8517,-4.8531,-4.8671,-4.8623,-4.8621,-4.8603,-4.8609,-4.8684,-4.8685,-4.8634,-4.863,-4.8639,-4.8691,-4.8714,-4.8722,-4.8839,-4.8731,-4.8737,-4.8741,-4.8743,-4.9056,-4.906,0,0,0,0,0,0,-4.8515,-4.8527,-4.8668,-4.8673,-4.856,-4.8609,-4.8617,-4.8654,-4.8684,-4.8685,-4.8642,-4.8635,-4.8705,-4.8714,-4.8724,-4.8867,-4.8738,-4.8744,-4.8747,-4.9051,-4.9057,-4.9061,0,0,0,0,0,0,-4.8511,-4.8529,-4.8666,-4.8599,-4.8615,-4.8617,-4.866,-4.8658,-4.8681,-4.869,-4.8689,-4.8667,-4.8703,-4.8715,-4.8806,-4.8868,-4.8747,-4.8753,-4.9046,-4.9053,-4.9059,-4.9156,0,0,0,0,0,0,-4.8506,-4.8528,-4.8575,-4.86,-4.8618,-4.8749,-4.8664,-4.8662,-4.8693,-4.8685,-4.8713,-4.8713,-4.87,-4.8797,-4.8812,-4.8875,-4.8758,-4.904,-4.9049,-4.9057,-4.9147,-4.9165,-4.918,0,0,0,0,0,-4.8499,-4.8599,-4.8578,-4.8595,-4.8678,-4.8752,-4.8763,-4.8747,-4.8699,-4.8745,-4.875,-4.8712,-4.8859,-4.8806,-4.8824,-4.8889,-4.9036,-4.9047,-4.9056,-4.9139,-4.9161,-4.918,0,0,0,0,0,0,-4.858,-4.8602,-4.8579,-4.869,-4.872,-4.874,-4.8799,-4.877,-4.8814,-4.8804,-4.8781,-4.8788,-4.8885,-4.8896,-4.8837,-4.9008,-4.894,-4.8954,-4.8997,-4.9018,-4.9034,-4.9029,-4.8763,0,0,0,0,0,-4.8611,-4.8671,-4.8686,-4.8783,-4.8799,-4.8797,-4.8828,-4.8814,-4.8843,-4.8855,-4.8867,-4.8896,-4.8949,-4.8984,-4.9033,-4.9148,-4.9152,-4.9202,-4.9218,-4.9232,-4.9244,-4.9304,-4.9326,-4.9094,-4.9094,-4.9094,0,0,-4.8675,-4.8694,-4.8734,-4.8799,-4.8821,-4.8882,-4.8808,-4.8876,-4.892,-4.8865,-4.8952,-4.8962,-4.8993,-4.9097,-4.9143,-4.9109,-4.9309,-4.9244,-4.9255,-4.926,-4.9317,-4.9339,-4.9358,-4.9101,-4.91,-4.9099,0,0,-4.8823,-4.8845,-4.8927,-4.895,-4.8984,-4.8982,-4.9001,-4.9026,-4.9031,-4.9118,-4.9077,-4.9129,-4.9221,-4.9244,-4.9268,-4.9424,-4.939,-4.944,-4.9527,-4.9586,-4.9605,-4.9621,-4.9675,-4.9695,-4.9453,-4.9453,-4.9453,0,-4.8899,-4.899,-4.8972,-4.9043,-4.9073,-4.9027,-4.9109,-4.9132,-4.9179,-4.92,-4.9162,-4.9275,-4.9292,-4.94,-4.9438,-4.9459,-4.948,-4.9437,-4.9604,-4.962,-4.9634,-4.9686,-4.9707,-4.9459,-4.9458,-4.9457,-4.9457,0,-4.9081,-4.9145,-4.9207,-4.9255,-4.9291,-4.9368,-4.936,-4.9398,-4.938,-4.9381,-4.947,-4.9489,-4.9541,-4.9565,-4.9548,-4.967,-4.9648,-4.9607,-4.9538,-4.9663,-4.9711,-4.9731,-4.9467,-4.9465,-4.9463,-4.9462,0,0,-4.9282,-4.9319,-4.9342,-4.9363,-4.9397,-4.9445,-4.9518,-4.957,-4.9603,-4.9637,-4.9697,-4.9775,-4.9737,-4.9764,-4.9748,-4.9801,-4.9922,-4.9753,-4.9753,-4.9783,-5.0056,-5.0087,-5.011,-4.9899,-4.9903,-4.9906,-5.0054,0,-4.943,-4.9559,-4.9545,-4.9667,-4.9725,-4.9681,-4.9745,-4.9771,-4.9774,-4.9823,-4.9825,-4.988,-4.9827,-4.9843,-4.9892,-4.9897,-4.9976,-4.9886,-4.9953,-4.9956,-4.9947,-5.0136,-5.0168,-5.0306,-5.0072,-5.0076,-5.0078,0,-4.9621,-4.9663,-4.9791,-4.9815,-4.9839,-4.9897,-4.9942,-4.9989,-5.0018,-5.0016,-5.0046,-5.0021,-5.0093,-5.0023,-5.0121,-5.0059,-5.0086,-5.0092,-5.0097,-5.0102,-5.0024,-5.0145,-5.035,-5.0371,-5.0108,-5.0105,-5.0103,0,-4.9754,-4.9842,-4.993,-4.995,-4.998,-5.0021,-5.0035,-5.006,-5.0091,-5.013,-5.015,-5.0197,-5.0222,-5.0258,-5.0245,-5.0196,-5.0345,-5.0275,-5.0345,-5.0345,-5.0378,-5.0376,-5.059,-5.0396,-5.0396,-5.0396,-5.0395,0,-4.9921,-5.0001,-4.999,-5.0045,-5.0132,-5.0114,-5.0201,-5.0209,-5.0231,-5.0285,-5.025,-5.0301,-5.0281,-5.0331,-5.0321,-5.0403,-5.0415,-5.0414,-5.0411,-5.0417,-5.0417,-5.0434,-5.0424,-5.0401,-5.04,-5.0399,-5.0398,0,-5.0085,-5.0081,-5.0174,-5.0195,-5.0202,-5.0265,-5.0282,-5.0332,-5.0332,-5.04,-5.0415,-5.0415,-5.0471,-5.0462,-5.0524,-5.0517,-5.0619,-5.0604,-5.061,-5.0606,-5.0677,-5.067,-5.0908,-5.0938,-5.0726,-5.0728,-5.073,0,-5.0191,-5.0252,-5.028,-5.0314,-5.0331,-5.0386,-5.0418,-5.0402,-5.0436,-5.0473,-5.0518,-5.0571,-5.0613,-5.0704,-5.0708,-5.0755,-5.074,-5.082,-5.0747,-5.0751,-5.074,-5.0737,-5.0742,-5.0835,-5.0837,-5.0839,-5.0841,0,-5.0381,-5.0376,-5.0424,-5.0472,-5.0511,-5.0548,-5.058,-5.0609,-5.0596,-5.0636,-5.0693,-5.0726,-5.0789,-5.0842,-5.0885,-5.0898,-5.0867,-5.0864,-5.0882,-5.089,-5.089,-5.089,-5.0649,-5.0858,-5.0857,-5.0855,-5.0854,-5.0854,-5.0519,-5.057,-5.0598,-5.0652,-5.0675,-5.0706,-5.0754,-5.076,-5.0808,-5.0859,-5.0846,-5.091,-5.0936,-5.0991,-5.1009,-5.1058,-5.1028,-5.1055,-5.1062,-5.1069,-5.1077,-5.0883,-5.1066,-5.1065,-5.1065,-5.1064,-5.1064,0,-5.0706,-5.0721,-5.0772,-5.0819,-5.0861,-5.0829,-5.0863,-5.09,-5.0958,-5.0985,-5.1027,-5.1092,-5.1143,-5.1151,-5.1198,-5.1236,-5.1223,-5.1249,-5.1246,-5.1249,-5.1101,-5.108,-5.1259,-5.1259,-5.1259,-5.1259,-5.1258,-5.1258,-5.0808,-5.0893,-5.0891,-5.0987,-5.1001,-5.1065,-5.1087,-5.1115,-5.1136,-5.1211,-5.1253,-5.1258,-5.1277,-5.1326,-5.137,-5.1371,-5.139,-5.1421,-5.1417,-5.1279,-5.1259,-5.1241,-5.1221,-5.1426,-5.1426,-5.156,-5.1561,-5.1562]}]]